Home   Weather   Uster   Past weeks

Flag for Switzerland Past Weather in Uster, Zurich, Switzerland — Yesterday and Last 2 Weeks

Now
63 °F

Mild.


Feels Like: 63 °F
Forecast: 45 / 58 °F
Wind: 3 mph from Southwest

Location: Zuerich-Fluntern

Current Time: Oct 1, 2016 at 12:22:18 PM

Latest Report: Oct 1, 2016 at 11:00 AM


Visibility: N/A

Pressure: 29.89 "Hg

Humidity: 70%

Dew Point: 53 °F

Location of UsterLocation

Past Weather in Uster — Graph

°F

Uster Temperature Yesterday

Maximum temperature yesterday: 73 °F (at 4:00 PM)
Minimum temperature yesterday: 58 °F (at 8:00 AM)
Average temperature yesterday: 64 °F

High & Low Weather Summary for the Past Weeks

 TemperatureHumidityPressure
High73 °F (Sep 29, 5:00 PM)100% (Sep 20, 3:00 AM)30.46 "Hg (Sep 20, 3:00 AM)
Low46 °F (Sep 22, 5:00 AM)35% (Sep 30, 4:00 PM)29.89 "Hg (Oct 1, 11:00 AM)
Average58 °F80%30.13 "Hg
* Reported Sep 16 11:00 AM — Oct 1 11:00 AM, Uster, Weather by CustomWeather, © 2016

Note: Actual official high and low records may vary slightly from our data, if they occured in-between our weather recording intervals... More about our weather records

Advertising

Uster Weather History for the Previous 24 Hours

Scroll right to see more
 ConditionsComfort  
Time TempWeatherWind HumidityBarometerVisibility
11:00 AM
Sat, Oct 1
63 °FMild.3 mph70%29.89 "HgN/A
10:00 AM60 °FCool.1 mph75%29.90 "HgN/A
9:00 AM58 °FCool.2 mph78%29.91 "HgN/A
8:00 AM57 °FCool.1 mph79%29.91 "HgN/A
7:00 AM56 °FCool.3 mph78%29.91 "HgN/A
6:00 AM57 °FCool.1 mph78%29.91 "HgN/A
5:00 AM57 °FCool.2 mph81%29.92 "HgN/A
4:00 AM56 °FCool.3 mph79%29.93 "HgN/A
3:00 AM57 °FCool.1 mph80%29.95 "HgN/A
2:00 AM57 °FCool.No wind82%29.96 "HgN/A
1:00 AM58 °FCool.1 mph77%29.95 "HgN/A
12:00 AM58 °FCool.1 mph77%29.96 "HgN/A
11:00 PM
Fri, Sep 30
58 °FCool.2 mph78%29.98 "HgN/A
10:00 PM59 °FCool.1 mph77%29.99 "HgN/A
8:00 PM62 °FPassing clouds.5 mph64%29.98 "HgN/A
7:00 PM65 °FMild.2 mph59%29.96 "HgN/A
6:00 PM70 °FMild.6 mph43%29.95 "HgN/A
5:00 PM72 °FMild.9 mph38%29.95 "HgN/A
4:00 PM73 °FMild.9 mph35%29.96 "HgN/A
3:00 PM71 °FMild.9 mph38%29.98 "HgN/A
2:00 PM72 °FMild.9 mph39%29.99 "HgN/A
1:00 PM70 °FMild.7 mph45%30.01 "HgN/A
12:00 PM68 °FMild.7 mph51%30.03 "HgN/A
Weather by CustomWeather, © 2016

See weather overviewHow to use our weather pages